• In Belarus
  • List of Countries
  • For 7 days
  • Water Temperature
  • Satellite Maps
  • Weather Map
  • Weather Widgets
  • user-avatar
    Login

    Hourly Weather Hrazdan

    Today, 21 February, Thursday

    Time Temperature Precipitation Wind Pressure Humidity
    00:00 -9°C° 0 mm 2 mps 610 mmHg 51%
    01:00 -9°C° 0 mm 2 mps 610 mmHg 52%
    02:00 -9°C° 0 mm 2 mps 610 mmHg 54%
    03:00 -9°C° 0 mm 2 mps 609 mmHg 56%
    04:00 -9°C° 0 mm 2 mps 609 mmHg 58%
    05:00 -9°C° 0 mm 2 mps 609 mmHg 59%
    06:00 -9°C° 0 mm 2 mps 609 mmHg 60%
    07:00 -8°C° 0 mm 2 mps 609 mmHg 62%
    08:00 -7°C° 0 mm 2 mps 610 mmHg 63%
    09:00 -6°C° 0 mm 3 mps 610 mmHg 66%
    10:00 -5°C° 0 mm 3 mps 610 mmHg 64%
    11:00 -4°C° 0 mm 3 mps 610 mmHg 63%
    12:00 -2°C° 0 mm 3 mps 610 mmHg 62%
    13:00 -2°C° 0 mm 3 mps 610 mmHg 62%
    14:00 -2°C° 0 mm 3 mps 610 mmHg 62%
    15:00 -2°C° 0 mm 3 mps 609 mmHg 64%
    16:00 -5°C° 0 mm 3 mps 609 mmHg 65%
    17:00 -5°C° 0 mm 2 mps 608 mmHg 66%
    18:00 -7°C° 0 mm 2 mps 608 mmHg 67%
    19:00 -7°C° 0 mm 2 mps 608 mmHg 67%
    20:00 -8°C° 0 mm 2 mps 608 mmHg 67%
    21:00 -8°C° 0 mm 2 mps 608 mmHg 67%
    22:00 -8°C° 0 mm 2 mps 609 mmHg 69%
    23:00 -8°C° 0 mm 2 mps 609 mmHg 70%

    Tomorrow, 22 February, Friday

    Time Temperature Precipitation Wind Pressure Humidity
    00:00 -8°C° 0 mm 2 mps 609 mmHg 72%
    01:00 -9°C° 0 mm 2 mps 608 mmHg 74%
    02:00 -9°C° 0 mm 2 mps 608 mmHg 76%
    03:00 -9°C° 0 mm 2 mps 608 mmHg 77%
    04:00 -9°C° 0 mm 2 mps 608 mmHg 78%
    05:00 -9°C° 0 mm 2 mps 608 mmHg 79%
    06:00 -9°C° 0 mm 2 mps 608 mmHg 79%
    07:00 -8°C° 0 mm 2 mps 608 mmHg 78%
    08:00 -8°C° 0 mm 3 mps 609 mmHg 78%
    09:00 -7°C° 0 mm 3 mps 609 mmHg 77%
    10:00 -6°C° 0 mm 3 mps 609 mmHg 75%
    11:00 -5°C° 0 mm 3 mps 609 mmHg 72%
    12:00 -4°C° 0 mm 3 mps 609 mmHg 70%
    13:00 -4°C° 0 mm 3 mps 609 mmHg 70%
    14:00 -4°C° 0 mm 3 mps 608 mmHg 69%
    15:00 -2°C° 0 mm 3 mps 608 mmHg 69%
    16:00 -5°C° 0 mm 3 mps 608 mmHg 70%
    17:00 -6°C° 0 mm 2 mps 608 mmHg 71%
    18:00 -7°C° 0 mm 2 mps 607 mmHg 72%
    19:00 -8°C° 0 mm 2 mps 607 mmHg 71%
    20:00 -8°C° 0 mm 2 mps 608 mmHg 70%
    21:00 -8°C° 0 mm 2 mps 608 mmHg 69%
    22:00 -9°C° 0 mm 2 mps 608 mmHg 70%
    23:00 -9°C° 0 mm 2 mps 609 mmHg 71%

    Day after tomorrow, 23 February, Saturday

    Time Temperature Precipitation Wind Pressure Humidity
    00:00 -9°C° 0 mm 2 mps 609 mmHg 72%
    01:00 -9°C° 0 mm 2 mps 609 mmHg 73%
    02:00 -9°C° 0 mm 2 mps 609 mmHg 75%
    03:00 -9°C° 0 mm 2 mps 609 mmHg 76%
    04:00 -9°C° 0 mm 2 mps 609 mmHg 76%
    05:00 -9°C° 0 mm 2 mps 609 mmHg 76%
    06:00 -9°C° 0 mm 2 mps 609 mmHg 77%
    07:00 -8°C° 0 mm 2 mps 609 mmHg 77%
    08:00 -8°C° 0 mm 3 mps 610 mmHg 77%
    09:00 -6°C° 0 mm 3 mps 611 mmHg 77%
    10:00 -5°C° 0 mm 3 mps 611 mmHg 76%
    11:00 -4°C° 0 mm 3 mps 611 mmHg 74%
    12:00 -2°C° 0 mm 3 mps 611 mmHg 73%
    13:00 -1°C° 0 mm 3 mps 611 mmHg 73%
    14:00 -1°C° 0 mm 3 mps 611 mmHg 73%
    15:00 -1°C° 0 mm 3 mps 610 mmHg 73%
    16:00 -2°C° 0 mm 3 mps 610 mmHg 74%
    17:00 -4°C° 0 mm 2 mps 610 mmHg 76%
    18:00 -5°C° 0 mm 2 mps 610 mmHg 77%
    19:00 -5°C° 0 mm 2 mps 610 mmHg 76%
    20:00 -6°C° 0 mm 2 mps 610 mmHg 76%
    21:00 -6°C° 0 mm 2 mps 610 mmHg 75%
    22:00 -7°C° 0 mm 2 mps 610 mmHg 76%
    23:00 -7°C° 0 mm 2 mps 611 mmHg 76%

    24 February, Sunday

    Time Temperature Precipitation Wind Pressure Humidity
    00:00 -7°C° 0 mm 2 mps 611 mmHg 77%
    01:00 -7°C° 0 mm 2 mps 611 mmHg 78%
    02:00 -7°C° 0 mm 2 mps 611 mmHg 79%
    03:00 -7°C° 0 mm 2 mps 611 mmHg 80%
    04:00 -7°C° 0 mm 2 mps 611 mmHg 80%
    05:00 -7°C° 0 mm 2 mps 611 mmHg 80%
    06:00 -6°C° 0 mm 1 mps 611 mmHg 80%
    07:00 -4°C° 0 mm 1 mps 612 mmHg 79%
    08:00 -5°C° 0 mm 2 mps 612 mmHg 78%
    09:00 -3°C° 0 mm 2 mps 613 mmHg 77%
    10:00 -2°C° 0 mm 2 mps 613 mmHg 75%
    11:00 -1°C° 0 mm 2 mps 613 mmHg 73%
    12:00 +1°C° 0 mm 2 mps 613 mmHg 71%
    13:00 +1°C° 0 mm 2 mps 613 mmHg 70%
    14:00 +2°C° 0 mm 1 mps 613 mmHg 69%
    15:00 +3°C° 0 mm 1 mps 613 mmHg 69%
    16:00 +1°C° 0 mm 1 mps 612 mmHg 70%
    17:00 -1°C° 0 mm 1 mps 612 mmHg 71%
    18:00 -2°C° 0 mm 1 mps 611 mmHg 73%
    19:00 -3°C° 0 mm 1 mps 612 mmHg 73%
    20:00 -3°C° 0 mm 1 mps 612 mmHg 73%
    21:00 -3°C° 0 mm 1 mps 612 mmHg 74%
    22:00 -4°C° 0 mm 1 mps 612 mmHg 74%
    23:00 -4°C° 0 mm 1 mps 612 mmHg 74%

    25 February, Monday

    Time Temperature Precipitation Wind Pressure Humidity
    00:00 -4°C° 0 mm 1 mps 613 mmHg 74%
    01:00 -4°C° 0 mm 1 mps 612 mmHg 74%
    02:00 -4°C° 0 mm 1 mps 612 mmHg 74%
    03:00 -4°C° 0 mm 1 mps 612 mmHg 74%
    04:00 -6°C° 0 mm 1 mps 612 mmHg 75%
    05:00 -6°C° 0 mm 1 mps 612 mmHg 75%
    06:00 -6°C° 0 mm 1 mps 612 mmHg 75%
    07:00 -4°C° 0 mm 1 mps 613 mmHg 75%
    08:00 -4°C° 0 mm 2 mps 613 mmHg 75%
    09:00 -3°C° 0 mm 2 mps 614 mmHg 75%
    10:00 -2°C° 0 mm 2 mps 613 mmHg 73%
    11:00 -2°C° 0 mm 2 mps 613 mmHg 72%
    12:00 -1°C° 0 mm 2 mps 613 mmHg 70%
    13:00 +1°C° 0 mm 2 mps 612 mmHg 70%
    14:00 +1°C° 0 mm 2 mps 612 mmHg 69%
    15:00 +1°C° 0 mm 2 mps 611 mmHg 68%
    16:00 -1°C° 0 mm 2 mps 611 mmHg 70%
    17:00 -3°C° 0 mm 2 mps 610 mmHg 72%
    18:00 -2°C° 0 mm 1 mps 610 mmHg 73%
    19:00 -3°C° 0 mm 1 mps 610 mmHg 73%
    20:00 -3°C° 0 mm 1 mps 610 mmHg 72%
    21:00 -4°C° 0 mm 1 mps 610 mmHg 72%
    22:00 -6°C° 0 mm 2 mps 610 mmHg 72%
    23:00 -6°C° 0 mm 2 mps 610 mmHg 72%

    26 February, Tuesday

    Time Temperature Precipitation Wind Pressure Humidity
    00:00 -6°C° 0 mm 2 mps 610 mmHg 72%
    01:00 -6°C° 0 mm 2 mps 609 mmHg 73%
    02:00 -7°C° 0 mm 2 mps 609 mmHg 75%
    03:00 -7°C° 0 mm 2 mps 609 mmHg 77%
    04:00 -7°C° 0 mm 2 mps 608 mmHg 77%
    05:00 -7°C° 0 mm 2 mps 608 mmHg 78%
    06:00 -7°C° 0 mm 2 mps 608 mmHg 79%
    07:00 -7°C° 0 mm 3 mps 608 mmHg 77%
    08:00 -6°C° 0 mm 3 mps 608 mmHg 75%
    09:00 -5°C° 0 mm 3 mps 608 mmHg 73%
    10:00 -4°C° 0 mm 3 mps 607 mmHg 69%
    11:00 -4°C° 0 mm 4 mps 607 mmHg 65%
    12:00 -3°C° 0 mm 4 mps 606 mmHg 61%
    13:00 -2°C° 0 mm 4 mps 605 mmHg 60%
    14:00 -2°C° 0 mm 4 mps 604 mmHg 59%
    15:00 -2°C° 0 mm 4 mps 603 mmHg 58%
    16:00 -2°C° 0 mm 3 mps 603 mmHg 60%
    17:00 -4°C° 0 mm 3 mps 602 mmHg 63%
    18:00 -5°C° 0 mm 3 mps 601 mmHg 66%
    19:00 -4°C° 0 mm 2 mps 601 mmHg 68%
    20:00 -5°C° 0 mm 2 mps 600 mmHg 71%
    21:00 -5°C° 0 mm 2 mps 600 mmHg 73%
    22:00 -5°C° 0.1 mm 2 mps 599 mmHg 76%
    23:00 -5°C° 0.1 mm 2 mps 599 mmHg 79%
    Show more